Overview Statistics Trail Chart Weather Telemetry Raw packets
 

This is the latest recevied weather packets stored in our database for station/object KG7FOQ-13. If no packets are shown the sender has not sent any weather packets the latest 10 day(s).

<< 16 17 18 19 20 21 22 >>
Time Temp. Humidity Pressure Rain* Wind** Luminosity Snow
1788495967 16.11° C 67% 1006.7 hPa 0 mm - - -
1788495666 17.22° C 64% 1006.6 hPa 0 mm - - -
1788495366 17.22° C 61% 1006.7 hPa 0 mm - - -
1788495065 17.22° C 60% 1006.8 hPa 0 mm - - -
1788494765 17.22° C 61% 1006.7 hPa 0 mm - - -
1788494464 17.22° C 58% 1006.8 hPa 0 mm - - -
1788494164 17.22° C 58% 1006.9 hPa 0 mm - - -
1788493863 17.78° C 62% 1006.9 hPa 0 mm - - -
1788493562 17.78° C 59% 1006.9 hPa 0 mm - - -
1788492961 18.33° C 57% 1007 hPa 0 mm - - -
1788492660 18.89° C 55% 1007.1 hPa 0 mm - - -
1788492359 18.89° C 51% 1007.1 hPa 0 mm - - -
1788492059 18.89° C 55% 1007.3 hPa 0 mm - - -
1788491759 18.89° C 57% 1007.3 hPa 0 mm - - -
1788491458 20° C 50% 1007.3 hPa 0 mm - - -
1788491157 19.44° C 49% 1007.3 hPa 0 mm - - -
1788490857 19.44° C 50% 1007.3 hPa 0 mm - - -
1788490556 19.44° C 50% 1007.3 hPa 0 mm - - -
1788490256 19.44° C 50% 1007.1 hPa 0 mm - - -
1788489955 20° C 52% 1007.1 hPa 0 mm - - -
1788489655 20.56° C 50% 1007.1 hPa 0 mm - - -
1788489354 21.11° C 44% 1007.1 hPa 0 mm - - -
1788489054 20.56° C 42% 1007.3 hPa 0 mm - - -
1788488751 21.11° C 41% 1007.3 hPa 0 mm - - -
1788488451 20.56° C 44% 1007.4 hPa 0 mm - - -

* Rain latest hour (hover to see other rain measurements)
** Current wind speed in m/s (hover to see current wind gust speed)